| time (UTC) | temp F | wind direction | speed MPH | gust MPH | rain 1hr in | rain 24hr in | rain mn in | humidity % | barometer mb |
| 20260503210007 | 82 | 182 | 4.0 | 13.0 | 0.00 | 0.00 | 0.00 | 31 | 1017.1 |
| 20260503205506 | 82 | 240 | 3.0 | 10.0 | 0.00 | 0.00 | 0.00 | 35 | 1017.1 |
| 20260503205005 | 82 | 213 | 4.0 | 11.0 | 0.00 | 0.00 | 0.00 | 31 | 1017.3 |
| 20260503203502 | 82 | 236 | 3.0 | 10.0 | 0.00 | 0.00 | 0.00 | 32 | 1017.5 |
| 20260503203005 | 82 | 182 | 6.0 | 10.0 | 0.00 | 0.00 | 0.00 | 32 | 1017.7 |
| 20260503202501 | 83 | 175 | 1.0 | 9.0 | 0.00 | 0.00 | 0.00 | 35 | 1017.7 |
| 20260503202002 | 82 | 170 | 3.0 | 11.0 | 0.00 | 0.00 | 0.00 | 34 | 1017.8 |
| 20260503201001 | 83 | 178 | 1.0 | 9.0 | 0.00 | 0.00 | 0.00 | 33 | 1018.0 |
| 20260503200502 | 83 | 178 | 2.0 | 10.0 | 0.00 | 0.00 | 0.00 | 34 | 1018.1 |
| 20260503200007 | 82 | 184 | 3.0 | 10.0 | 0.00 | 0.00 | 0.00 | 34 | 1018.2 |
| 20260503195504 | 82 | 260 | 4.0 | 10.0 | 0.00 | 0.00 | 0.00 | 33 | 1018.3 |
| 20260503195002 | 82 | 217 | 3.0 | 11.0 | 0.00 | 0.00 | 0.00 | 34 | 1018.3 |
| 20260503194508 | 82 | 253 | 2.0 | 11.0 | 0.00 | 0.00 | 0.00 | 33 | 1018.3 |
| 20260503193501 | 81 | 253 | 0.0 | 15.0 | 0.00 | 0.00 | 0.00 | 35 | 1018.5 |
| 20260503193009 | 81 | 257 | 5.0 | 15.0 | 0.00 | 0.00 | 0.00 | 32 | 1018.5 |
| 20260503192501 | 81 | 229 | 3.0 | 12.0 | 0.00 | 0.00 | 0.00 | 35 | 1018.7 |
| 20260503192003 | 81 | 205 | 3.0 | 12.0 | 0.00 | 0.00 | 0.00 | 35 | 1018.9 |
| 20260503191505 | 81 | 214 | 6.0 | 12.0 | 0.00 | 0.00 | 0.00 | 35 | 1018.9 |
| 20260503191001 | 81 | 223 | 2.0 | 11.0 | 0.00 | 0.00 | 0.00 | 34 | 1018.9 |
| 20260503190501 | 81 | 162 | 2.0 | 11.0 | 0.00 | 0.00 | 0.00 | 35 | 1018.9 |
| 20260503190010 | 81 | 215 | 1.0 | 10.0 | 0.00 | 0.00 | 0.00 | 35 | 1019.1 |
| 20260503185001 | 80 | 233 | 4.0 | 14.0 | 0.00 | 0.00 | 0.00 | 36 | 1019.2 |
| 20260503184503 | 81 | 263 | 4.0 | 11.0 | 0.00 | 0.00 | 0.00 | 35 | 1019.3 |
| 20260503184002 | 81 | 232 | 2.0 | 12.0 | 0.00 | 0.00 | 0.00 | 36 | 1019.4 |
| 20260503183500 | 80 | 259 | 3.0 | 12.0 | 0.00 | 0.00 | 0.00 | 35 | 1019.5 |
| 20260503183003 | 80 | 230 | 5.0 | 12.0 | 0.00 | 0.00 | 0.00 | 37 | 1019.6 |
| 20260503182000 | 80 | 219 | 6.0 | 16.0 | 0.00 | 0.00 | 0.00 | 37 | 1019.7 |
| 20260503181505 | 81 | 187 | 2.0 | 9.0 | 0.00 | 0.00 | 0.00 | 40 | 1019.8 |
| 20260503181000 | 80 | 277 | 1.0 | 13.0 | 0.00 | 0.00 | 0.00 | 43 | 1019.8 |
| 20260503180505 | 80 | 207 | 4.0 | 13.0 | 0.00 | 0.00 | 0.00 | 39 | 1020.0 |
| 20260503180006 | 80 | 167 | 3.0 | 10.0 | 0.00 | 0.00 | 0.00 | 40 | 1020.1 |
| 20260503175500 | 80 | 238 | 2.0 | 10.0 | 0.00 | 0.00 | 0.00 | 42 | 1020.1 |
| 20260503175000 | 80 | 225 | 2.0 | 9.0 | 0.00 | 0.00 | 0.00 | 43 | 1020.4 |
| 20260503174504 | 79 | 217 | 2.0 | 9.0 | 0.00 | 0.00 | 0.00 | 43 | 1020.4 |
| 20260503174001 | 80 | 257 | 2.0 | 8.0 | 0.00 | 0.00 | 0.00 | 44 | 1020.4 |
| 20260503173500 | 79 | 215 | 2.0 | 11.0 | 0.00 | 0.00 | 0.00 | 43 | 1020.5 |
| 20260503173005 | 79 | 250 | 2.0 | 11.0 | 0.00 | 0.00 | 0.00 | 43 | 1020.5 |
| 20260503172500 | 78 | 253 | 4.0 | 11.0 | 0.00 | 0.00 | 0.00 | 42 | 1020.5 |
| 20260503172000 | 78 | 236 | 3.0 | 11.0 | 0.00 | 0.00 | 0.00 | 42 | 1020.7 |
| 20260503171504 | 78 | 206 | 3.0 | 12.0 | 0.00 | 0.00 | 0.00 | 44 | 1020.8 |
| 20260503170500 | 78 | 257 | 2.0 | 16.0 | 0.00 | 0.00 | 0.00 | 46 | 1020.9 |
| 20260503151003 | 71 | 202 | 4.0 | 10.0 | 0.00 | 0.00 | 0.00 | 54 | 1021.4 |
| 20260503150500 | 71 | 236 | 3.0 | 10.0 | 0.00 | 0.00 | 0.00 | 53 | 1021.3 |
| 20260503130959 | 61 | 214 | 0.0 | 5.0 | 0.00 | 0.00 | 0.00 | 69 | 1021.1 |
| 20260503130459 | 61 | 214 | 1.0 | 5.0 | 0.00 | 0.00 | 0.00 | 69 | 1021.1 |
| 20260503110459 | 52 | 243 | 0.0 | 0.0 | 0.00 | 0.00 | 0.00 | 86 | 1020.2 |
| 20260503090458 | 55 | 243 | 0.0 | 0.0 | 0.00 | 0.00 | 0.00 | 79 | 1020.1 |
| 20260503081502 | 58 | 243 | 0.0 | 0.0 | 0.00 | 0.00 | 0.00 | 72 | 1020.0 |
| 20260503080958 | 58 | 243 | 0.0 | 0.0 | 0.00 | 0.00 | 0.00 | 71 | 1020.0 |
| 20260503080459 | 59 | 242 | 0.0 | 0.0 | 0.00 | 0.00 | 0.00 | 70 | 1020.0 |
| 20260503072458 | 61 | 242 | 0.0 | 0.0 | 0.00 | 0.00 | 0.00 | 67 | 1020.2 |
| 20260503071958 | 61 | 243 | 0.0 | 0.0 | 0.00 | 0.00 | 0.00 | 66 | 1020.2 |
| 20260503071501 | 61 | 243 | 0.0 | 1.0 | 0.00 | 0.00 | 0.00 | 66 | 1020.2 |
| 20260503070958 | 61 | 242 | 0.0 | 1.0 | 0.00 | 0.00 | 0.00 | 66 | 1020.2 |
| 20260503054507 | 59 | 242 | 0.0 | 0.0 | 0.00 | 0.00 | 0.00 | 74 | 1020.1 |
| 20260503054003 | 60 | 243 | 0.0 | 0.0 | 0.00 | 0.00 | 0.00 | 74 | 1020.1 |
| 20260503053505 | 60 | 243 | 0.0 | 0.0 | 0.00 | 0.00 | 0.00 | 74 | 1020.1 |
| 20260503053007 | 60 | 243 | 0.0 | 0.0 | 0.00 | 0.00 | 0.00 | 73 | 1020.1 |
| 20260503052503 | 61 | 243 | 0.0 | 0.0 | 0.00 | 0.00 | 0.00 | 73 | 1020.1 |
| 20260503052003 | 61 | 243 | 0.0 | 0.0 | 0.00 | 0.00 | 0.00 | 73 | 1020.1 |
| 20260503051003 | 61 | 242 | 0.0 | 0.0 | 0.00 | 0.00 | 0.00 | 73 | 1019.9 |
| 20260503050503 | 61 | 243 | 0.0 | 0.0 | 0.00 | 0.00 | 0.00 | 72 | 1019.9 |
| 20260503050012 | 61 | 242 | 0.0 | 0.0 | 0.00 | 0.00 | 0.00 | 72 | 1019.9 |
| 20260503045503 | 61 | 243 | 0.0 | 0.0 | 0.00 | 0.00 | 0.00 | 72 | 1019.9 |
| 20260503045003 | 62 | 242 | 0.0 | 0.0 | 0.00 | 0.00 | 0.00 | 72 | 1019.8 |
| 20260503044507 | 62 | 242 | 0.0 | 0.0 | 0.00 | 0.00 | 0.00 | 72 | 1019.9 |
| 20260503044003 | 62 | 243 | 0.0 | 0.0 | 0.00 | 0.00 | 0.00 | 72 | 1019.9 |
| 20260503043008 | 62 | 242 | 0.0 | 0.0 | 0.00 | 0.00 | 0.00 | 72 | 1019.8 |
| 20260503042503 | 62 | 243 | 0.0 | 0.0 | 0.00 | 0.00 | 0.00 | 71 | 1019.8 |
| 20260503042003 | 62 | 243 | 0.0 | 0.0 | 0.00 | 0.00 | 0.00 | 71 | 1019.8 |
| 20260503041506 | 62 | 243 | 0.0 | 0.0 | 0.00 | 0.00 | 0.00 | 71 | 1019.8 |
| 20260503041003 | 62 | 242 | 0.0 | 0.0 | 0.00 | 0.00 | 0.00 | 71 | 1019.8 |
| 20260503040503 | 62 | 243 | 0.0 | 0.0 | 0.00 | 0.00 | 0.00 | 70 | 1019.9 |
| 20260503040009 | 62 | 243 | 0.0 | 0.0 | 0.00 | 0.00 | 0.00 | 70 | 1019.9 |
| 20260503035003 | 63 | 243 | 0.0 | 0.0 | 0.00 | 0.00 | 0.00 | 68 | 1019.9 |
| 20260503034506 | 63 | 243 | 0.0 | 0.0 | 0.00 | 0.00 | 0.00 | 68 | 1019.9 |
| 20260503034003 | 63 | 243 | 0.0 | 0.0 | 0.00 | 0.00 | 0.00 | 67 | 1019.8 |
| 20260503033503 | 63 | 242 | 0.0 | 0.0 | 0.00 | 0.00 | 0.00 | 66 | 1019.9 |
| 20260503033006 | 63 | 242 | 0.0 | 0.0 | 0.00 | 0.00 | 0.00 | 65 | 1019.9 |
| 20260503032505 | 63 | 243 | 0.0 | 0.0 | 0.00 | 0.00 | 0.00 | 64 | 1019.8 |
| 20260503031507 | 64 | 242 | 0.0 | 0.0 | 0.00 | 0.00 | 0.00 | 64 | 1019.7 |
| 20260503030503 | 64 | 243 | 0.0 | 0.0 | 0.00 | 0.00 | 0.00 | 62 | 1019.6 |
| 20260503025504 | 65 | 242 | 0.0 | 0.0 | 0.00 | 0.00 | 0.00 | 61 | 1019.5 |
| 20260503025003 | 65 | 243 | 0.0 | 0.0 | 0.00 | 0.00 | 0.00 | 60 | 1019.5 |
| 20260503024003 | 66 | 242 | 0.0 | 0.0 | 0.00 | 0.00 | 0.00 | 58 | 1019.4 |
| 20260503023007 | 66 | 243 | 0.0 | 0.0 | 0.00 | 0.00 | 0.00 | 57 | 1019.4 |
| 20260503022503 | 67 | 243 | 0.0 | 0.0 | 0.00 | 0.00 | 0.00 | 56 | 1019.3 |
| 20260503022003 | 67 | 242 | 0.0 | 0.0 | 0.00 | 0.00 | 0.00 | 56 | 1019.2 |
| 20260503021003 | 67 | 243 | 0.0 | 0.0 | 0.00 | 0.00 | 0.00 | 55 | 1019.2 |
| 20260503020503 | 67 | 242 | 0.0 | 0.0 | 0.00 | 0.00 | 0.00 | 55 | 1019.1 |
| 20260503015003 | 68 | 243 | 0.0 | 0.0 | 0.00 | 0.00 | 0.00 | 52 | 1019.1 |
| 20260503014506 | 69 | 242 | 0.0 | 0.0 | 0.00 | 0.00 | 0.00 | 51 | 1019.1 |
| 20260503013505 | 70 | 243 | 0.0 | 0.0 | 0.00 | 0.00 | 0.00 | 51 | 1019.0 |
| 20260503013007 | 70 | 243 | 0.0 | 0.0 | 0.00 | 0.00 | 0.00 | 50 | 1018.9 |
| 20260503012503 | 71 | 242 | 0.0 | 0.0 | 0.00 | 0.00 | 0.00 | 47 | 1018.9 |
| 20260503012003 | 72 | 242 | 0.0 | 0.0 | 0.00 | 0.00 | 0.00 | 46 | 1018.9 |
| 20260503011506 | 72 | 243 | 0.0 | 0.0 | 0.00 | 0.00 | 0.00 | 46 | 1018.9 |
| 20260503011004 | 72 | 242 | 0.0 | 0.0 | 0.00 | 0.00 | 0.00 | 46 | 1018.8 |
| 20260503010504 | 72 | 243 | 0.0 | 0.0 | 0.00 | 0.00 | 0.00 | 45 | 1018.8 |
| 20260503010007 | 73 | 243 | 0.0 | 0.0 | 0.00 | 0.00 | 0.00 | 45 | 1018.7 |
| 20260503005503 | 73 | 243 | 0.0 | 0.0 | 0.00 | 0.00 | 0.00 | 45 | 1018.7 |
| 20260503005002 | 73 | 242 | 0.0 | 0.0 | 0.00 | 0.00 | 0.00 | 44 | 1018.7 |
| 20260503004505 | 73 | 242 | 0.0 | 3.0 | 0.00 | 0.00 | 0.00 | 44 | 1018.6 |
| 20260503004002 | 74 | 243 | 0.0 | 3.0 | 0.00 | 0.00 | 0.00 | 44 | 1018.6 |
| 20260503003502 | 74 | 243 | 0.0 | 3.0 | 0.00 | 0.00 | 0.00 | 43 | 1018.6 |
| 20260503003007 | 74 | 242 | 0.0 | 4.0 | 0.00 | 0.00 | 0.00 | 42 | 1018.6 |
| 20260503002002 | 75 | 243 | 0.0 | 2.0 | 0.00 | 0.00 | 0.00 | 43 | 1018.6 |
| 20260503001505 | 76 | 244 | 0.0 | 2.0 | 0.00 | 0.00 | 0.00 | 41 | 1018.6 |
| 20260503001002 | 76 | 242 | 0.0 | 4.0 | 0.00 | 0.00 | 0.00 | 41 | 1018.5 |
| 20260503000503 | 76 | 243 | 0.0 | 7.0 | 0.00 | 0.00 | 0.00 | 41 | 1018.6 |
| 20260503000010 | 77 | 244 | 0.0 | 7.0 | 0.00 | 0.00 | 0.00 | 40 | 1018.6 |
| 20260502235502 | 77 | 261 | 1.0 | 7.0 | 0.00 | 0.00 | 0.00 | 39 | 1018.7 |
| 20260502235002 | 77 | 28 | 0.0 | 2.0 | 0.00 | 0.00 | 0.00 | 40 | 1018.6 |
| 20260502234505 | 77 | 131 | 0.0 | 2.0 | 0.00 | 0.00 | 0.00 | 38 | 1018.7 |
| 20260502233502 | 78 | 106 | 0.0 | 0.0 | 0.00 | 0.00 | 0.00 | 41 | 1018.7 |
| 20260502233006 | 77 | 107 | 0.0 | 1.0 | 0.00 | 0.00 | 0.00 | 39 | 1018.7 |
| 20260502232503 | 76 | 107 | 0.0 | 1.0 | 0.00 | 0.00 | 0.00 | 39 | 1018.7 |
| 20260502232003 | 75 | 106 | 0.0 | 0.0 | 0.00 | 0.00 | 0.00 | 42 | 1018.9 |
| 20260502231003 | 74 | 107 | 0.0 | 0.0 | 0.00 | 0.00 | 0.00 | 44 | 1018.9 |
| 20260502230502 | 75 | 107 | 0.0 | 0.0 | 0.00 | 0.00 | 0.00 | 39 | 1019.0 |
| 20260502230008 | 76 | 107 | 0.0 | 0.0 | 0.00 | 0.00 | 0.00 | 44 | 1019.0 |
| 20260502225502 | 77 | 106 | 0.0 | 0.0 | 0.00 | 0.00 | 0.00 | 41 | 1019.0 |
| 20260502225002 | 77 | 107 | 0.0 | 0.0 | 0.00 | 0.00 | 0.00 | 40 | 1019.0 |
| 20260502224505 | 77 | 107 | 0.0 | 1.0 | 0.00 | 0.00 | 0.00 | 37 | 1019.0 |
| 20260502224002 | 78 | 106 | 0.0 | 2.0 | 0.00 | 0.00 | 0.00 | 38 | 1019.1 |
| 20260502223503 | 77 | 98 | 0.0 | 2.0 | 0.00 | 0.00 | 0.00 | 35 | 1019.1 |
| 20260502223005 | 77 | 98 | 0.0 | 4.0 | 0.00 | 0.00 | 0.00 | 38 | 1019.2 |
| 20260502222502 | 77 | 110 | 0.0 | 4.0 | 0.00 | 0.00 | 0.00 | 39 | 1019.2 |
| 20260502222002 | 75 | 83 | 0.0 | 2.0 | 0.00 | 0.00 | 0.00 | 39 | 1019.2 |
| 20260502221505 | 75 | 92 | 0.0 | 2.0 | 0.00 | 0.00 | 0.00 | 41 | 1019.3 |
| 20260502221003 | 75 | 179 | 0.0 | 0.0 | 0.00 | 0.00 | 0.00 | 38 | 1019.4 |
| 20260502220007 | 75 | 179 | 0.0 | 2.0 | 0.00 | 0.00 | 0.00 | 38 | 1019.4 |
| 20260502215502 | 76 | 179 | 0.0 | 5.0 | 0.00 | 0.00 | 0.00 | 36 | 1019.4 |
| 20260502215002 | 77 | 178 | 1.0 | 5.0 | 0.00 | 0.00 | 0.00 | 37 | 1019.5 |
| 20260502213502 | 75 | 135 | 0.0 | 2.0 | 0.00 | 0.00 | 0.00 | 39 | 1019.6 |
| 20260502213006 | 75 | 135 | 0.0 | 2.0 | 0.00 | 0.00 | 0.00 | 39 | 1019.7 |
| 20260502212502 | 76 | 123 | 0.0 | 1.0 | 0.00 | 0.00 | 0.00 | 39 | 1019.7 |
| 20260502212002 | 76 | 123 | 0.0 | 1.0 | 0.00 | 0.00 | 0.00 | 38 | 1019.7 |
| 20260502211506 | 76 | 123 | 0.0 | 2.0 | 0.00 | 0.00 | 0.00 | 35 | 1019.8 |
| 20260502211002 | 76 | 146 | 0.0 | 2.0 | 0.00 | 0.00 | 0.00 | 39 | 1019.8 |